Location: Goulburn
(34.7479°S, 149.7277°E)
Time: 03:00:50
(UTC+11:00)

OTV 5 (USA 277) - Pass Details

Date: 19 October 2019
Orbit: 310 x 324 km, 54.5° (Epoch: 17 October)

Event Time Altitude Azimuth Distance (km) Brightness Sun altitude
Rises 19:39:22 0° 242° (WSW) 2,066 ? -5.0°
Reaches altitude 10° 19:41:49 10° 265° (W) 1,229 ? -5.5°
Maximum altitude 19:43:34 16° 305° (NW) 959 ? -5.9°
Drops below altitude 10° 19:45:19 10° 346° (NNW) 1,220 ? -6.2°
Sets 19:47:44 0° 9° (N) 2,043 ? -6.7°
